Location: Riverside Cemetery
(38.3047°N, 99.7773°W)
Time: 16:19:39
(UTC+00:00)

IRS-1A Rocket - Pass Details

Date: 19 September 2020
Orbit: 851 x 931 km, 99.2° (Epoch: 22 October)

Event Time Altitude Azimuth Distance (km) Brightness Sun altitude
Exits shadow 02:38:19 24° 172° (S) 1,833 5.7 -23.2°
Maximum altitude 02:42:05 78° 256° (WSW) 952 4.4 -23.9°
Drops below altitude 10° 02:47:59 10° 343° (NNW) 2,628 7.2 -24.9°
Sets 02:50:24 0° 345° (NNW) 3,567 8.0 -25.4°
